CW7566 Weather Reports


Display with metric or nautical units.
time (UTC)temp
F
wind
direction
speed
MPH
gust
MPH
rain 1hr
in
rain 24hr
in
rain mn
in
humidity
%
barometer
mb
20211204110642 46 131 2.0 8.0 0.00 0.00 0.00 70 1017.6
20211204105646 45 162 2.0 10.0 0.00 0.00 0.00 70 1017.5
20211204104648 45 0 1.0 6.0 0.00 0.00 0.00 70 1017.4
20211204103646 45 202 1.0 4.0 0.00 0.00 0.00 69 1017.4
20211204102634 45 209 3.0 4.0 0.00 0.00 0.00 70 1017.3
20211204101652 44 236 2.0 4.0 0.00 0.00 0.00 70 1017.3
20211204100648 44 188 1.0 4.0 0.00 0.00 0.00 69 1017.2
20211204095640 44 115 2.0 5.0 0.00 0.00 0.00 69 1017.3
20211204094640 44 182 2.0 6.0 0.00 0.00 0.00 69 1017.3
20211204093659 44 304 0.0 7.0 0.00 0.00 0.00 69 1017.2
20211204092645 44 196 1.0 6.0 0.00 0.00 0.00 68 1017.1
20211204091639 45 205 3.0 6.0 0.00 0.00 0.00 68 1017.1
20211204090658 45 27 3.0 5.0 0.00 0.00 0.00 67 1017.3
20211204085646 45 134 1.0 3.0 0.00 0.00 0.00 67 1017.2
20211204084644 45 223 0.0 4.0 0.00 0.00 0.00 66 1017.3
20211204083647 45 279 3.0 4.0 0.00 0.00 0.00 66 1017.3
20211204082635 45 232 0.0 2.0 0.00 0.00 0.00 66 1017.4
20211204081629 45 282 1.0 4.0 0.00 0.00 0.00 66 1017.2
20211204080650 45 171 2.0 4.0 0.00 0.00 0.00 66 1017.3
20211204075636 45 184 0.0 4.0 0.00 0.00 0.00 65 1017.2
20211204074633 45 164 0.0 3.0 0.00 0.00 0.00 65 1017.1
20211204073651 45 101 1.0 3.0 0.00 0.00 0.00 64 1017.0
20211204072642 46 80 2.0 3.0 0.00 0.00 0.00 64 1017.0
20211204071636 46 163 0.0 2.0 0.00 0.00 0.00 64 1017.0
20211204070655 46 163 1.0 4.0 0.00 0.00 0.00 63 1016.9
20211204065642 46 141 1.0 3.0 0.00 0.00 0.00 63 1016.9
20211204064643 46 164 2.0 3.0 0.00 0.00 0.00 63 1017.0
20211204063700 47 151 2.0 3.0 0.00 0.00 0.00 63 1017.1
20211204062647 47 147 1.0 4.0 0.00 0.00 0.00 63 1017.1
20211204061643 47 138 0.0 3.0 0.00 0.00 0.00 62 1017.0
20211204060643 47 157 1.0 3.0 0.00 0.00 0.00 62 1017.1
20211204055646 48 77 1.0 4.0 0.00 0.00 0.00 62 1017.0
20211204054642 47 220 1.0 3.0 0.00 0.00 0.00 61 1017.1
20211204053641 48 222 0.0 2.0 0.00 0.00 0.00 61 1017.4
20211204052630 48 138 0.0 4.0 0.00 0.00 0.00 61 1017.2
20211204051631 48 185 1.0 3.0 0.00 0.00 0.00 60 1017.2
20211204050651 48 2 2.0 3.0 0.00 0.00 0.00 60 1017.2
20211204045643 48 142 1.0 3.0 0.00 0.00 0.00 60 1017.5
20211204044643 48 143 1.0 3.0 0.00 0.00 0.00 60 1017.4
20211204043638 48 161 0.0 3.0 0.00 0.00 0.00 58 1017.4
20211204042643 48 116 1.0 4.0 0.00 0.00 0.00 59 1017.4
20211204041636 49 29 2.0 4.0 0.00 0.00 0.00 58 1017.4
20211204040657 49 138 0.0 4.0 0.00 0.00 0.00 58 1017.4
20211204035648 49 149 2.0 3.0 0.00 0.00 0.00 58 1017.3
20211204034642 49 52 0.0 3.0 0.00 0.00 0.00 58 1017.2
20211204033654 50 153 1.0 4.0 0.00 0.00 0.00 58 1017.1
20211204032644 50 207 1.0 4.0 0.00 0.00 0.00 57 1017.1
20211204031638 50 162 0.0 3.0 0.00 0.00 0.00 56 1017.1
20211204030658 50 132 0.0 4.0 0.00 0.00 0.00 56 1017.2
20211204025645 50 160 1.0 3.0 0.00 0.00 0.00 55 1017.2
20211204024628 51 160 1.0 3.0 0.00 0.00 0.00 55 1017.3
20211204023647 51 101 0.0 0.0 0.00 0.00 0.00 55 1017.3
20211204022632 52 101 0.0 0.0 0.00 0.00 0.00 54 1017.4
20211204021631 52 101 0.0 3.0 0.00 0.00 0.00 53 1017.3
20211204020648 52 101 1.0 2.0 0.00 0.00 0.00 53 1017.3
20211204015636 53 101 1.0 3.0 0.00 0.00 0.00 53 1017.3
20211204014653 53 101 1.0 3.0 0.00 0.00 0.00 52 1017.2
20211204013645 53 98 0.0 0.0 0.00 0.00 0.00 51 1017.3
20211204012640 54 98 0.0 2.0 0.00 0.00 0.00 50 1017.3
20211204011635 54 98 1.0 3.0 0.00 0.00 0.00 51 1017.2
20211204010653 55 150 1.0 4.0 0.00 0.00 0.00 50 1017.3
20211204005638 56 139 2.0 4.0 0.00 0.00 0.00 48 1017.3
20211204004634 57 108 1.0 4.0 0.00 0.00 0.00 46 1017.3
20211204003653 58 95 1.0 3.0 0.00 0.00 0.00 44 1017.2
20211204002641 59 194 0.0 3.0 0.00 0.00 0.00 42 1017.2
20211204001642 61 281 0.0 3.0 0.00 0.00 0.00 40 1017.2
20211204000629 62 281 1.0 6.0 0.00 0.00 0.00 38 1017.1
20211203235648 62 82 3.0 7.0 0.00 0.00 0.00 37 1017.1
20211203234646 62 73 2.0 6.0 0.00 0.00 0.00 37 1017.1
20211203233643 63 91 0.0 6.0 0.00 0.00 0.00 35 1016.9
20211203232631 63 66 3.0 7.0 0.00 0.00 0.00 35 1016.9
20211203231645 62 122 3.0 8.0 0.00 0.00 0.00 36 1016.7
20211203230643 62 44 4.0 8.0 0.00 0.00 0.00 37 1016.7
20211203225643 62 70 4.0 9.0 0.00 0.00 0.00 38 1016.7
20211203224640 62 33 4.0 6.0 0.00 0.00 0.00 38 1016.7
20211203223657 63 123 1.0 5.0 0.00 0.00 0.00 39 1016.7
20211203222639 64 77 2.0 5.0 0.00 0.00 0.00 38 1016.7
20211203221633 64 93 1.0 6.0 0.00 0.00 0.00 37 1016.6
20211203220657 65 93 1.0 5.0 0.00 0.00 0.00 37 1016.5
20211203215639 66 347 3.0 7.0 0.00 0.00 0.00 34 1016.5
20211203214634 66 49 2.0 7.0 0.00 0.00 0.00 35 1016.4
20211203213653 67 56 3.0 7.0 0.00 0.00 0.00 36 1016.3
20211203212636 67 22 3.0 9.0 0.00 0.00 0.00 35 1016.2
20211203211650 67 89 4.0 7.0 0.00 0.00 0.00 35 1016.1
20211203210701 67 112 4.0 9.0 0.00 0.00 0.00 35 1016.1
20211203205635 68 61 3.0 6.0 0.00 0.00 0.00 36 1016.0
20211203204643 68 352 3.0 5.0 0.00 0.00 0.00 35 1016.0
20211203203641 69 300 2.0 7.0 0.00 0.00 0.00 38 1015.8
20211203202636 69 254 2.0 7.0 0.00 0.00 0.00 37 1015.8
20211203201647 69 345 1.0 9.0 0.00 0.00 0.00 36 1015.8
20211203200700 69 291 2.0 10.0 0.00 0.00 0.00 37 1015.8
20211203195644 69 320 3.0 7.0 0.00 0.00 0.00 36 1015.9
20211203194641 68 285 1.0 8.0 0.00 0.00 0.00 38 1016.0
20211203193640 68 285 1.0 8.0 0.00 0.00 0.00 38 1016.0
20211203192634 67 284 3.0 6.0 0.00 0.00 0.00 38 1016.1
20211203191629 67 289 2.0 8.0 0.00 0.00 0.00 40 1016.2
20211203190650 67 280 2.0 6.0 0.00 0.00 0.00 39 1016.1
20211203185637 67 290 1.0 8.0 0.00 0.00 0.00 41 1016.3
20211203184636 67 287 5.0 9.0 0.00 0.00 0.00 42 1016.4
20211203183655 66 263 3.0 8.0 0.00 0.00 0.00 41 1016.5
20211203182644 66 268 4.0 9.0 0.00 0.00 0.00 43 1016.6
20211203181641 66 246 1.0 6.0 0.00 0.00 0.00 43 1016.7
20211203180646 65 262 3.0 7.0 0.00 0.00 0.00 44 1016.9
20211203175632 65 280 3.0 6.0 0.00 0.00 0.00 45 1017.1
20211203174629 64 204 2.0 8.0 0.00 0.00 0.00 46 1017.3
20211203173649 64 266 2.0 5.0 0.00 0.00 0.00 46 1017.4
20211203172640 64 265 2.0 6.0 0.00 0.00 0.00 46 1017.5
20211203171639 63 263 2.0 7.0 0.00 0.00 0.00 47 1017.7
20211203170643 62 226 2.0 4.0 0.00 0.00 0.00 50 1018.3
20211203165645 61 217 2.0 5.0 0.00 0.00 0.00 52 1018.4
20211203164642 60 283 3.0 4.0 0.00 0.00 0.00 53 1018.4
20211203163642 59 218 2.0 4.0 0.00 0.00 0.00 56 1018.6
20211203162648 58 263 1.0 5.0 0.00 0.00 0.00 57 1018.9
20211203161644 57 303 1.0 4.0 0.00 0.00 0.00 59 1019.1
20211203160644 57 260 1.0 3.0 0.00 0.00 0.00 59 1018.7
20211203155637 56 259 0.0 3.0 0.00 0.00 0.00 60 1018.7
20211203154634 56 257 2.0 3.0 0.00 0.00 0.00 60 1018.7
20211203153631 55 243 2.0 3.0 0.00 0.00 0.00 61 1018.8